Location: Unspecified
(52.4292°N, 19.3359°E)
Time: 23:02:33
(UTC+02:00)

A-11 Canister half - Pass Details

Date: 25 May 2024
Orbit: 1515 x 1685 km, 47.2° (Epoch: 19 June)

Event Time Altitude Azimuth Distance (km) Brightness Sun altitude
Rises 23:36:32 0° 173° (S) 4,808 - -15.1°
Reaches altitude 10° 23:42:17 10° 147° (SSE) 3,786 - -15.4°
Exits shadow 23:44:28 12° 133° (SE) 3,607 10.5 -15.4°
Maximum altitude 23:45:41 12° 125° (SE) 3,575 10.5 -15.5°
Drops below altitude 10° 23:49:02 10° 104° (ESE) 3,745 10.8 -15.6°
Sets 23:54:36 0° 78° (ENE) 4,701 11.6 -15.8°
